sat.trackr.live / text

‹ back to catalog

STARLINK-35201

NORAD 65664 · 2025-211N

PAYLOAD ACTIVE UNKNOWN

§ Identity

Operator
Country
US
Launch date
2025-09-19
Launch site
AFWTR
Launch vehicle
Mass (kg)
RCS (m²)

Purposes: comms

External: N2YO · Heavens-Above · Gunter

§ Orbital elements

Epoch: 2026-05-25T02:51:13.707360Z

Period
95.64 min
Inclination
97.4480°
Eccentricity
0.0002215
Mean motion
15.05657418 rev/d
Perigee alt
548.0 km
Apogee alt
551.0 km
Semi-major
6,927.6 km
B*
2.3287e-4
RAAN
189.0569°
Arg perigee
125.0445°
Mean anomaly
235.0990°
Rev number
3,854

§ Raw data

STARLINK-352011 65664U 25211N   26145.11890865  .00003304  00000+0  23287-3 0  99982 65664  97.4480 189.0569 0002215 125.0445 235.0990 15.05657418 38540

JSON: /api/v1/satellites/65664 · /tle

For live sub-satellite position, see the globe view (requires WebGL).

§ Visibility from observer

Set your observer location to see the next 7 days of passes ≥ 10°. The values pass through the URL so the page stays shareable.

No JS? Fill the form by hand. The geolocation button needs JavaScript.